When you browse on this site, cookies collect data to enhance your experience and personalize the content and advertising you see.
Visit our Privacy Policy to learn more. By continuing to use the site, you agree to this use of cookies and data.
  • In Schweiz
  • Länderverzeichnis
  • Für 7 Tage
  • Wassertemperatur
  • Satellitenkarten
  • Wetterkarte
  • Widgets
  • user-avatar
    Anmelden

    Stündliche Wetter Rio Branco

    Heute, 22 Januar, Dienstag

    Zeit Temperatur Niederschläge Wind Luftdruck Luftfeuchtigkeit
    00:00 +23°C° 0 mm 0 m/S 747 mmHg 96%
    01:00 +23°C° 0 mm 0 m/S 747 mmHg 96%
    02:00 +23°C° 0 mm 0 m/S 747 mmHg 97%
    03:00 +23°C° 0 mm 0 m/S 746 mmHg 97%
    04:00 +23°C° 0 mm 0 m/S 746 mmHg 97%
    05:00 +23°C° 0.4 mm 0 m/S 747 mmHg 97%
    06:00 +24°C° 0.4 mm 0 m/S 747 mmHg 96%
    07:00 +24°C° 0.4 mm 0 m/S 748 mmHg 95%
    08:00 +27°C° 1.8 mm 1 m/S 748 mmHg 92%
    09:00 +29°C° 1.8 mm 1 m/S 748 mmHg 90%
    10:00 +30°C° 1.8 mm 1 m/S 748 mmHg 88%
    11:00 +30°C° 1.7 mm 1 m/S 747 mmHg 87%
    12:00 +30°C° 1.7 mm 1 m/S 747 mmHg 86%
    13:00 +31°C° 1.7 mm 2 m/S 746 mmHg 85%
    14:00 +30°C° 1.7 mm 1 m/S 745 mmHg 87%
    15:00 +28°C° 1.7 mm 0 m/S 745 mmHg 89%
    16:00 +27°C° 1.7 mm 0 m/S 744 mmHg 92%
    17:00 +26°C° 0.1 mm 0 m/S 745 mmHg 93%
    18:00 +25°C° 0.1 mm 0 m/S 745 mmHg 94%
    19:00 +24°C° 0.1 mm 0 m/S 745 mmHg 95%
    20:00 +24°C° 0.1 mm 0 m/S 746 mmHg 95%
    21:00 +24°C° 0.1 mm 0 m/S 747 mmHg 96%
    22:00 +24°C° 0.1 mm 0 m/S 747 mmHg 96%
    23:00 +24°C° 0.2 mm 0 m/S 747 mmHg 97%

    Morgen, 23 Januar, Mittwoch

    Zeit Temperatur Niederschläge Wind Luftdruck Luftfeuchtigkeit
    00:00 +24°C° 0.2 mm 0 m/S 746 mmHg 97%
    01:00 +24°C° 0.2 mm 0 m/S 746 mmHg 97%
    02:00 +23°C° 0.1 mm 0 m/S 746 mmHg 97%
    03:00 +23°C° 0.1 mm 0 m/S 746 mmHg 97%
    04:00 +23°C° 0.1 mm 0 m/S 746 mmHg 97%
    05:00 +23°C° 0.1 mm 0 m/S 747 mmHg 97%
    06:00 +24°C° 0.1 mm 0 m/S 747 mmHg 97%
    07:00 +24°C° 0.1 mm 0 m/S 748 mmHg 96%
    08:00 +24°C° 0.6 mm 0 m/S 748 mmHg 96%
    09:00 +25°C° 0.6 mm 0 m/S 748 mmHg 96%
    10:00 +25°C° 0.6 mm 0 m/S 748 mmHg 96%
    11:00 +29°C° 0.4 mm 1 m/S 748 mmHg 88%
    12:00 +30°C° 0.4 mm 1 m/S 747 mmHg 79%
    13:00 +32°C° 0.4 mm 1 m/S 746 mmHg 71%
    14:00 +32°C° 0 mm 1 m/S 745 mmHg 69%
    15:00 +32°C° 0 mm 1 m/S 744 mmHg 68%
    16:00 +33°C° 0 mm 1 m/S 744 mmHg 66%
    17:00 +31°C° 0 mm 1 m/S 744 mmHg 71%
    18:00 +29°C° 0 mm 1 m/S 744 mmHg 77%
    19:00 +26°C° 0 mm 0 m/S 745 mmHg 82%
    20:00 +25°C° 0 mm 0 m/S 745 mmHg 83%
    21:00 +25°C° 0 mm 0 m/S 746 mmHg 85%
    22:00 +25°C° 0 mm 0 m/S 746 mmHg 86%
    23:00 +24°C° 0 mm 0 m/S 746 mmHg 88%

    übermorgen, 24 Januar, Donnerstag

    Zeit Temperatur Niederschläge Wind Luftdruck Luftfeuchtigkeit
    00:00 +24°C° 0 mm 0 m/S 746 mmHg 89%
    01:00 +24°C° 0 mm 0 m/S 745 mmHg 90%
    02:00 +24°C° 0.1 mm 0 m/S 745 mmHg 92%
    03:00 +23°C° 0.1 mm 0 m/S 745 mmHg 94%
    04:00 +23°C° 0.1 mm 0 m/S 745 mmHg 96%
    05:00 +24°C° 0.8 mm 0 m/S 745 mmHg 95%
    06:00 +24°C° 0.8 mm 0 m/S 746 mmHg 95%
    07:00 +25°C° 0.8 mm 0 m/S 747 mmHg 94%
    08:00 +25°C° 2 mm 0 m/S 747 mmHg 94%
    09:00 +26°C° 2 mm 0 m/S 747 mmHg 94%
    10:00 +28°C° 2 mm 1 m/S 748 mmHg 93%
    11:00 +27°C° 1.4 mm 0 m/S 747 mmHg 90%
    12:00 +28°C° 1.4 mm 0 m/S 746 mmHg 87%
    13:00 +29°C° 1.4 mm 0 m/S 745 mmHg 84%
    14:00 +28°C° 0.4 mm 0 m/S 744 mmHg 86%
    15:00 +28°C° 0.4 mm 0 m/S 744 mmHg 88%
    16:00 +27°C° 0.4 mm 0 m/S 743 mmHg 90%
    17:00 +26°C° 0 mm 0 m/S 744 mmHg 92%
    18:00 +25°C° 0 mm 0 m/S 744 mmHg 93%
    19:00 +24°C° 0 mm 0 m/S 744 mmHg 95%
    20:00 +24°C° 0 mm 0 m/S 745 mmHg 94%
    21:00 +24°C° 0 mm 0 m/S 745 mmHg 93%
    22:00 +26°C° 0 mm 1 m/S 746 mmHg 92%
    23:00 +26°C° 0 mm 1 m/S 745 mmHg 93%

    25 Januar, Freitag

    Zeit Temperatur Niederschläge Wind Luftdruck Luftfeuchtigkeit
    00:00 +26°C° 0 mm 1 m/S 745 mmHg 93%
    01:00 +26°C° 0 mm 1 m/S 744 mmHg 94%
    02:00 +25°C° 0 mm 1 m/S 744 mmHg 95%
    03:00 +25°C° 0 mm 1 m/S 744 mmHg 96%
    04:00 +23°C° 0 mm 0 m/S 744 mmHg 97%
    05:00 +24°C° 0 mm 0 m/S 745 mmHg 95%
    06:00 +25°C° 0 mm 0 m/S 746 mmHg 93%
    07:00 +25°C° 0 mm 0 m/S 746 mmHg 91%
    08:00 +29°C° 0.7 mm 1 m/S 746 mmHg 86%
    09:00 +30°C° 0.7 mm 1 m/S 746 mmHg 81%
    10:00 +32°C° 0.7 mm 1 m/S 746 mmHg 76%
    11:00 +33°C° 1 mm 1 m/S 745 mmHg 69%
    12:00 +34°C° 1 mm 1 m/S 744 mmHg 63%
    13:00 +33°C° 1 mm 0 m/S 743 mmHg 57%
    14:00 +34°C° 0 mm 1 m/S 742 mmHg 61%
    15:00 +33°C° 0 mm 1 m/S 742 mmHg 66%
    16:00 +33°C° 0 mm 1 m/S 741 mmHg 71%
    17:00 +31°C° 0.1 mm 1 m/S 742 mmHg 76%
    18:00 +27°C° 0.1 mm 0 m/S 742 mmHg 82%
    19:00 +26°C° 0.1 mm 0 m/S 742 mmHg 87%
    20:00 +26°C° 0 mm 0 m/S 743 mmHg 87%
    21:00 +25°C° 0 mm 0 m/S 744 mmHg 87%
    22:00 +25°C° 0 mm 0 m/S 744 mmHg 87%
    23:00 +25°C° 0 mm 0 m/S 744 mmHg 87%

    26 Januar, Samstag

    Zeit Temperatur Niederschläge Wind Luftdruck Luftfeuchtigkeit
    00:00 +25°C° 0 mm 0 m/S 744 mmHg 88%
    01:00 +25°C° 0 mm 0 m/S 744 mmHg 89%
    02:00 +26°C° 0.2 mm 1 m/S 744 mmHg 91%
    03:00 +26°C° 0.2 mm 1 m/S 744 mmHg 93%
    04:00 +26°C° 0.2 mm 1 m/S 743 mmHg 95%
    05:00 +26°C° 0.2 mm 1 m/S 744 mmHg 93%
    06:00 +27°C° 0.2 mm 1 m/S 745 mmHg 92%
    07:00 +27°C° 0.2 mm 1 m/S 746 mmHg 91%
    08:00 +28°C° 1.3 mm 1 m/S 745 mmHg 89%
    09:00 +30°C° 1.3 mm 2 m/S 745 mmHg 87%
    10:00 +31°C° 1.3 mm 2 m/S 745 mmHg 85%
    11:00 +32°C° 0.7 mm 2 m/S 744 mmHg 79%
    12:00 +32°C° 0.7 mm 1 m/S 744 mmHg 73%
    13:00 +33°C° 0.7 mm 1 m/S 743 mmHg 67%
    14:00 +32°C° 0.9 mm 1 m/S 742 mmHg 74%
    15:00 +31°C° 0.9 mm 1 m/S 742 mmHg 81%
    16:00 +31°C° 0.9 mm 1 m/S 741 mmHg 89%
    17:00 +28°C° 0.3 mm 0 m/S 742 mmHg 91%
    18:00 +26°C° 0.3 mm 0 m/S 742 mmHg 93%
    19:00 +25°C° 0.3 mm 0 m/S 742 mmHg 95%
    20:00 +25°C° 0 mm 0 m/S 743 mmHg 95%
    21:00 +25°C° 0 mm 0 m/S 743 mmHg 95%
    22:00 +25°C° 0 mm 0 m/S 744 mmHg 96%
    23:00 +25°C° 0 mm 0 m/S 744 mmHg 96%

    27 Januar, Sonntag

    Zeit Temperatur Niederschläge Wind Luftdruck Luftfeuchtigkeit
    00:00 +27°C° 0 mm 1 m/S 743 mmHg 97%
    01:00 +26°C° 0 mm 1 m/S 743 mmHg 97%
    02:00 +24°C° 0 mm 0 m/S 743 mmHg 97%
    03:00 +24°C° 0 mm 0 m/S 743 mmHg 96%
    04:00 +24°C° 0 mm 0 m/S 743 mmHg 96%
    05:00 +25°C° 0 mm 0 m/S 744 mmHg 95%
    06:00 +25°C° 0 mm 0 m/S 745 mmHg 93%
    07:00 +26°C° 0 mm 0 m/S 745 mmHg 92%
    08:00 +29°C° 0.8 mm 1 m/S 745 mmHg 87%
    09:00 +30°C° 0.8 mm 1 m/S 745 mmHg 82%
    10:00 +32°C° 0.8 mm 1 m/S 745 mmHg 77%
    11:00 +32°C° 1.3 mm 1 m/S 745 mmHg 77%
    12:00 +32°C° 1.3 mm 1 m/S 744 mmHg 76%
    13:00 +32°C° 1.3 mm 1 m/S 743 mmHg 76%
    14:00 +30°C° 0.2 mm 0 m/S 742 mmHg 74%
    15:00 +30°C° 0.2 mm 0 m/S 742 mmHg 72%
    16:00 +30°C° 0.2 mm 0 m/S 741 mmHg 70%
    17:00 +29°C° 0 mm 0 m/S 741 mmHg 76%
    18:00 +30°C° 0 mm 1 m/S 742 mmHg 82%
    19:00 +28°C° 0 mm 1 m/S 742 mmHg 88%
    20:00 +28°C° 1.4 mm 1 m/S 743 mmHg 90%
    21:00 +27°C° 1.4 mm 1 m/S 743 mmHg 93%
    22:00 +27°C° 1.4 mm 1 m/S 744 mmHg 95%
    23:00 +26°C° 0.1 mm 1 m/S 744 mmHg 96%
    Mehr zeigen